This is the latest recevied weather packets stored in our database for station/object KO4APQ. If no packets are shown the sender has not sent any weather packets the latest 10 day(s).
| Time | Temp. | Humidity | Pressure | Rain* | Wind** | Luminosity | Snow |
|---|---|---|---|---|---|---|---|
| 1778107327 | 23.33° C | 76% | 1013.5 hPa | 0 mm | - | 2 W/m² | - |
| 1778107022 | 23.33° C | 76% | 1013.1 hPa | 0 mm | - | 5 W/m² | - |
| 1778106718 | 23.89° C | 74% | 1012.7 hPa | 0 mm | - | 12 W/m² | - |
| 1778106415 | 23.89° C | 73% | 1012.6 hPa | 0 mm | - | 16 W/m² | - |
| 1778106111 | 24.44° C | 72% | 1012.6 hPa | 0 mm | - | 32 W/m² | - |
| 1778105809 | 24.44° C | 72% | 1012.3 hPa | 0 mm | - | 20 W/m² | - |
| 1778105507 | 25° C | 71% | 1012 hPa | 0 mm | - | 60 W/m² | - |
| 1778105204 | 25.56° C | 70% | 1012.2 hPa | 0 mm | - | 57 W/m² | - |
| 1778104898 | 25.56° C | 66% | 1012 hPa | 0 mm | - | 36 W/m² | - |
| 1778104596 | 25.56° C | 65% | 1012 hPa | 0 mm | - | 104 W/m² | - |
| 1778104291 | 26.11° C | 63% | 1012.2 hPa | 0 mm | - | 114 W/m² | - |
| 1778103988 | 26.11° C | 63% | 1012.1 hPa | 0 mm | - | 141 W/m² | - |
| 1778103686 | 26.11° C | 63% | 1012 hPa | 0 mm | - | 310 W/m² | - |
| 1778103384 | 25.56° C | 66% | 1011.9 hPa | 0 mm | - | 317 W/m² | - |
| 1778103081 | 25.56° C | 64% | 1012.1 hPa | 0 mm | - | 399 W/m² | - |
| 1778102778 | 25.56° C | 63% | 1012.2 hPa | 0 mm | - | 429 W/m² | - |
| 1778102473 | 25.56° C | 63% | 1012.4 hPa | 0 mm | - | 343 W/m² | - |
| 1778102168 | 25.56° C | 62% | 1012.4 hPa | 0 mm | - | 488 W/m² | - |
| 1778101866 | 25.56° C | 62% | 1012.7 hPa | 0 mm | - | 360 W/m² | - |
| 1778101562 | 25° C | 63% | 1012.9 hPa | 0 mm | - | 386 W/m² | - |
| 1778101259 | 25° C | 67% | 1013 hPa | 0 mm | - | 279 W/m² | - |
| 1778100956 | 24.44° C | 67% | 1013.3 hPa | 0 mm | - | 168 W/m² | - |
| 1778100651 | 24.44° C | 67% | 1013.4 hPa | 0 mm | - | 156 W/m² | - |
| 1778100349 | 25° C | 65% | 1013.4 hPa | 0 mm | - | 198 W/m² | - |
| 1778100046 | 25.56° C | 65% | 1013.6 hPa | 0 mm | - | 208 W/m² | - |
* Rain latest hour (hover to see other rain measurements)
** Current wind speed in m/s (hover to see current wind gust speed)